EST,Max TemperatureF,Mean TemperatureF,Min TemperatureF,Max Dew PointF,MeanDew PointF,Min DewpointF,Max Humidity, Mean Humidity, Min Humidity, Max Sea Level PressureIn, Mean Sea Level PressureIn, Min Sea Level PressureIn, Max VisibilityMiles, Mean VisibilityMiles, Min VisibilityMiles, Max Wind SpeedMPH, Mean Wind SpeedMPH, Max Gust SpeedMPH,PrecipitationIn, CloudCover, Events, WindDirDegrees
2012-11-1,78,65,53,61,56,50,94,75,52,30.05,30.01,29.94,10,10,10,14,6,23,0.00,1,,257
2012-11-2,75,62,51,59,52,45,100,77,35,30.10,30.05,30.02,10,7,0,7,3,,0.00,0,Fog,294
2012-11-3,80,64,48,61,55,48,97,78,45,30.14,30.09,30.06,10,9,6,8,1,,0.00,0,,4
2012-11-4,81,66,53,64,58,53,100,86,54,30.13,30.08,30.01,10,6,1,9,2,,0.00,0,,231
2012-11-5,78,69,60,65,62,59,94,81,54,30.02,29.97,29.93,10,9,5,7,3,,0.00,2,,259
2012-11-6,79,71,62,63,61,56,96,76,48,29.94,29.88,29.82,10,9,5,14,4,18,0.00,3,,255
2012-11-7,68,58,48,58,50,45,100,75,45,30.00,29.91,29.84,10,9,6,18,7,28,0.00,1,,290
2012-11-8,68,58,48,49,45,41,93,66,39,30.14,30.07,29.98,10,10,10,13,7,24,0.00,1,,329
2012-11-9,72,62,52,57,51,44,90,66,51,30.23,30.19,30.14,10,10,10,12,7,24,0.00,3,,346
2012-11-10,75,66,57,59,55,52,90,66,46,30.29,30.24,30.20,10,10,10,13,5,17,0.00,7,,62
2012-11-11,79,74,68,66,61,55,90,68,52,30.28,30.24,30.22,10,10,2,16,9,24,0.09,4,Rain,95
2012-11-12,79,75,71,68,66,62,84,76,64,30.23,30.19,30.16,10,10,4,15,10,30,0.46,3,Rain,93
2012-11-13,79,70,62,68,66,60,97,84,62,30.17,30.12,30.09,10,8,1,8,2,18,0.84,4,Rain,27
2012-11-14,77,70,63,69,65,62,100,85,64,30.14,30.11,30.08,10,10,9,8,3,,0.02,3,,12
2012-11-15,77,69,61,67,63,60,100,89,69,30.13,30.09,30.06,10,8,2,12,4,17,0.00,2,,331
2012-11-16,75,68,60,64,62,60,100,88,67,30.13,30.09,30.06,10,8,4,12,6,21,0.06,6,Rain,335
2012-11-17,78,70,63,66,64,62,97,82,62,30.12,30.09,30.06,10,8,2,12,5,20,0.15,4,Rain,30
2012-11-18,75,69,61,65,62,57,100,82,66,30.16,30.11,30.06,10,9,6,16,7,25,0.00,4,,347
2012-11-19,62,58,55,58,56,53,94,87,82,30.14,30.10,30.04,10,9,5,14,7,18,0.00,7,,308
2012-11-20,73,66,59,62,59,56,93,81,64,30.05,30.00,29.95,10,9,6,16,9,23,0.00,5,,324
2012-11-21,73,65,57,58,54,49,93,75,53,30.05,30.00,29.96,10,10,9,15,8,23,0.00,0,,331
2012-11-22,71,63,55,52,49,46,80,65,47,30.14,30.08,30.02,10,10,10,16,10,26,0.00,0,,327
2012-11-23,73,60,48,54,49,45,93,69,48,30.17,30.11,30.07,10,10,9,13,8,18,0.00,0,,332
2012-11-24,75,59,43,59,51,41,93,79,44,30.11,30.06,29.99,10,9,4,10,3,21,0.00,1,,306
2012-11-25,73,60,48,55,52,45,93,76,51,30.15,30.10,30.06,10,10,7,7,4,,0.00,0,,339
2012-11-26,75,64,53,63,58,51,96,82,62,30.22,30.17,30.14,10,8,3,13,2,,0.00,2,,86
2012-11-27,77,67,57,64,61,55,100,77,56,30.21,30.15,30.10,10,9,2,14,2,,0.00,4,,149
2012-11-28,75,68,60,65,61,58,93,83,64,30.22,30.17,30.11,10,9,6,14,5,23,0.00,1,,336
2012-11-29,75,66,57,63,59,56,96,73,57,30.25,30.22,30.18,10,9,3,14,6,21,0.02,3,Rain,51
2012-11-30,77,67,57,59,57,54,90,63,50,30.25,30.20,30.16,10,10,10,16,8,24,0.00,1,,77